Powrót do katalogu

OBJECT C

AktywnyVLEO
NORAD 100082·UNKNOWN·🇮🇳 India

Wystrzelony Jul 18, 2026 z Satish Dhawan Space Centre

Loading…

Następne Przeloty (najbliższe 24 godziny)

TLE

ŚwieżeSource: Space-Track

Epoka: Sep 14, 2026, 12:12 UTC

1 A0082U 26164C   26257.50898836  .00021763  00000-0  50529-3 0  9991
2 A0082  59.9316  75.6185 0016556  12.6842 347.4659 15.42266303  8966

Śledź OBJECT C w czasie rzeczywistym z AllMySat

Download on the App Store